• Em Portugal
  • Lista de países
  • Para 7 dias
  • Temperatura da água
  • Mapas de satélite
  • Mapa do tempo
  • Widgets de tempo
  • user-avatar
    Iniciar Sessão

    Previsão horária em Elbasan

    Hoje, 28 Maio, Segunda-feira

    Tempo Temperatura Precipitação Vento Pressão Humidade
    00:00 +20°C° 0 mm 1 m/s 737 mmHg 74%
    01:00 +20°C° 0 mm 1 m/s 737 mmHg 74%
    02:00 +20°C° 0 mm 1 m/s 736 mmHg 74%
    03:00 +20°C° 0 mm 1 m/s 736 mmHg 74%
    04:00 +19°C° 0 mm 1 m/s 736 mmHg 74%
    05:00 +21°C° 0 mm 1 m/s 737 mmHg 71%
    06:00 +23°C° 0 mm 1 m/s 737 mmHg 67%
    07:00 +24°C° 0 mm 1 m/s 737 mmHg 64%
    08:00 +26°C° 0 mm 1 m/s 737 mmHg 59%
    09:00 +27°C° 0 mm 1 m/s 737 mmHg 54%
    10:00 +29°C° 0 mm 1 m/s 737 mmHg 48%
    11:00 +29°C° 0 mm 1 m/s 737 mmHg 48%
    12:00 +30°C° 0 mm 2 m/s 737 mmHg 47%
    13:00 +30°C° 0 mm 3 m/s 737 mmHg 46%
    14:00 +30°C° 0,2 mm 3 m/s 736 mmHg 48%
    15:00 +29°C° 0,2 mm 2 m/s 736 mmHg 51%
    16:00 +28°C° 0,2 mm 2 m/s 736 mmHg 54%
    17:00 +27°C° 0,2 mm 2 m/s 736 mmHg 60%
    18:00 +25°C° 0,2 mm 1 m/s 736 mmHg 67%
    19:00 +23°C° 0,2 mm 1 m/s 736 mmHg 74%
    20:00 +22°C° 0,1 mm 1 m/s 736 mmHg 74%
    21:00 +22°C° 0,1 mm 1 m/s 736 mmHg 75%
    22:00 +21°C° 0,1 mm 1 m/s 736 mmHg 75%
    23:00 +21°C° 0 mm 1 m/s 736 mmHg 75%

    Amanhã, 29 Maio, Terça-feira

    Tempo Temperatura Precipitação Vento Pressão Humidade
    00:00 +21°C° 0 mm 1 m/s 736 mmHg 76%
    01:00 +20°C° 0 mm 1 m/s 736 mmHg 76%
    02:00 +20°C° 0 mm 1 m/s 736 mmHg 76%
    03:00 +20°C° 0 mm 1 m/s 736 mmHg 76%
    04:00 +20°C° 0 mm 1 m/s 736 mmHg 77%
    05:00 +21°C° 0 mm 1 m/s 736 mmHg 73%
    06:00 +23°C° 0 mm 1 m/s 736 mmHg 69%
    07:00 +24°C° 0 mm 1 m/s 736 mmHg 65%
    08:00 +26°C° 0 mm 1 m/s 736 mmHg 60%
    09:00 +27°C° 0 mm 1 m/s 736 mmHg 56%
    10:00 +29°C° 0 mm 1 m/s 736 mmHg 51%
    11:00 +29°C° 0,1 mm 1 m/s 736 mmHg 51%
    12:00 +30°C° 0,1 mm 2 m/s 735 mmHg 50%
    13:00 +30°C° 0,1 mm 3 m/s 735 mmHg 49%
    14:00 +29°C° 0,4 mm 3 m/s 735 mmHg 52%
    15:00 +29°C° 0,4 mm 2 m/s 735 mmHg 55%
    16:00 +28°C° 0,4 mm 2 m/s 734 mmHg 58%
    17:00 +26°C° 0,1 mm 1 m/s 734 mmHg 64%
    18:00 +25°C° 0,1 mm 1 m/s 734 mmHg 70%
    19:00 +23°C° 0,1 mm 1 m/s 734 mmHg 76%
    20:00 +23°C° 0 mm 1 m/s 734 mmHg 77%
    21:00 +22°C° 0 mm 1 m/s 734 mmHg 78%
    22:00 +22°C° 0 mm 1 m/s 734 mmHg 78%
    23:00 +21°C° 0 mm 1 m/s 734 mmHg 79%

    Depois de amanhã, 30 Maio, Quarta-feira

    Tempo Temperatura Precipitação Vento Pressão Humidade
    00:00 +21°C° 0 mm 1 m/s 734 mmHg 79%
    01:00 +21°C° 0 mm 1 m/s 734 mmHg 79%
    02:00 +20°C° 0,1 mm 1 m/s 734 mmHg 80%
    03:00 +20°C° 0,1 mm 1 m/s 734 mmHg 80%
    04:00 +20°C° 0,1 mm 1 m/s 734 mmHg 80%
    05:00 +21°C° 0,1 mm 1 m/s 734 mmHg 76%
    06:00 +23°C° 0,1 mm 1 m/s 734 mmHg 71%
    07:00 +25°C° 0,1 mm 1 m/s 734 mmHg 67%
    08:00 +26°C° 0,2 mm 1 m/s 734 mmHg 63%
    09:00 +27°C° 0,2 mm 1 m/s 734 mmHg 59%
    10:00 +28°C° 0,2 mm 1 m/s 734 mmHg 55%
    11:00 +29°C° 0,8 mm 2 m/s 734 mmHg 55%
    12:00 +29°C° 0,8 mm 2 m/s 734 mmHg 55%
    13:00 +29°C° 0,8 mm 3 m/s 734 mmHg 56%
    14:00 +29°C° 0,7 mm 3 m/s 734 mmHg 57%
    15:00 +28°C° 0,7 mm 3 m/s 734 mmHg 59%
    16:00 +28°C° 0,7 mm 2 m/s 733 mmHg 61%
    17:00 +26°C° 0,2 mm 2 m/s 733 mmHg 68%
    18:00 +24°C° 0,2 mm 1 m/s 733 mmHg 74%
    19:00 +23°C° 0,2 mm 1 m/s 733 mmHg 80%
    20:00 +22°C° 0,2 mm 1 m/s 733 mmHg 82%
    21:00 +21°C° 0,2 mm 1 m/s 733 mmHg 84%
    22:00 +21°C° 0,2 mm 1 m/s 734 mmHg 85%
    23:00 +20°C° 0 mm 1 m/s 733 mmHg 85%

    31 Maio, Quinta-feira

    Tempo Temperatura Precipitação Vento Pressão Humidade
    00:00 +20°C° 0 mm 1 m/s 733 mmHg 84%
    01:00 +20°C° 0 mm 1 m/s 733 mmHg 84%
    02:00 +19°C° 0 mm 1 m/s 733 mmHg 82%
    03:00 +19°C° 0 mm 1 m/s 733 mmHg 81%
    04:00 +19°C° 0 mm 1 m/s 733 mmHg 80%
    05:00 +21°C° 0 mm 1 m/s 733 mmHg 74%
    06:00 +22°C° 0 mm 1 m/s 733 mmHg 68%
    07:00 +24°C° 0 mm 1 m/s 733 mmHg 62%
    08:00 +26°C° 0 mm 1 m/s 733 mmHg 58%
    09:00 +27°C° 0 mm 1 m/s 733 mmHg 54%
    10:00 +28°C° 0 mm 2 m/s 734 mmHg 50%
    11:00 +29°C° 0 mm 2 m/s 733 mmHg 50%
    12:00 +29°C° 0 mm 3 m/s 733 mmHg 50%
    13:00 +30°C° 0 mm 3 m/s 733 mmHg 50%
    14:00 +29°C° 0,1 mm 3 m/s 733 mmHg 52%
    15:00 +29°C° 0,1 mm 3 m/s 733 mmHg 55%
    16:00 +28°C° 0,1 mm 3 m/s 732 mmHg 57%
    17:00 +26°C° 0,1 mm 2 m/s 732 mmHg 63%
    18:00 +24°C° 0,1 mm 2 m/s 732 mmHg 70%
    19:00 +23°C° 0,1 mm 1 m/s 732 mmHg 76%
    20:00 +22°C° 0 mm 1 m/s 733 mmHg 78%
    21:00 +21°C° 0 mm 1 m/s 733 mmHg 79%
    22:00 +20°C° 0 mm 1 m/s 733 mmHg 81%
    23:00 +20°C° 0 mm 1 m/s 733 mmHg 80%

    1 Junho, Sexta-feira

    Tempo Temperatura Precipitação Vento Pressão Humidade
    00:00 +20°C° 0 mm 1 m/s 733 mmHg 79%
    01:00 +19°C° 0 mm 1 m/s 733 mmHg 78%
    02:00 +19°C° 0 mm 1 m/s 733 mmHg 77%
    03:00 +19°C° 0 mm 1 m/s 732 mmHg 76%
    04:00 +19°C° 0 mm 1 m/s 732 mmHg 75%
    05:00 +20°C° 0 mm 1 m/s 733 mmHg 71%
    06:00 +22°C° 0 mm 1 m/s 733 mmHg 67%
    07:00 +24°C° 0 mm 1 m/s 733 mmHg 63%
    08:00 +25°C° 0 mm 1 m/s 733 mmHg 60%
    09:00 +26°C° 0 mm 2 m/s 733 mmHg 57%
    10:00 +28°C° 0 mm 2 m/s 733 mmHg 53%
    11:00 +28°C° 0 mm 3 m/s 733 mmHg 52%
    12:00 +29°C° 0 mm 3 m/s 732 mmHg 50%
    13:00 +29°C° 0 mm 4 m/s 732 mmHg 48%
    14:00 +29°C° 0 mm 4 m/s 732 mmHg 50%
    15:00 +28°C° 0 mm 3 m/s 732 mmHg 52%
    16:00 +28°C° 0 mm 3 m/s 732 mmHg 54%
    17:00 +26°C° 0 mm 3 m/s 732 mmHg 62%
    18:00 +24°C° 0 mm 2 m/s 732 mmHg 70%
    19:00 +22°C° 0 mm 1 m/s 732 mmHg 78%
    20:00 +21°C° 0 mm 1 m/s 732 mmHg 80%
    21:00 +21°C° 0 mm 1 m/s 733 mmHg 81%
    22:00 +20°C° 0 mm 1 m/s 733 mmHg 83%
    23:00 +20°C° 0 mm 1 m/s 733 mmHg 82%

    2 Junho, Sábado

    Tempo Temperatura Precipitação Vento Pressão Humidade
    00:00 +19°C° 0 mm 1 m/s 733 mmHg 81%
    01:00 +19°C° 0 mm 1 m/s 733 mmHg 81%
    02:00 +19°C° 0 mm 1 m/s 733 mmHg 81%
    03:00 +19°C° 0 mm 1 m/s 733 mmHg 80%
    04:00 +18°C° 0 mm 1 m/s 733 mmHg 80%
    05:00 +20°C° 0 mm 1 m/s 733 mmHg 76%
    06:00 +22°C° 0 mm 1 m/s 733 mmHg 71%
    07:00 +22°C° 0 mm 0 m/s 733 mmHg 66%
    08:00 +25°C° 0 mm 1 m/s 733 mmHg 62%
    09:00 +26°C° 0 mm 2 m/s 733 mmHg 58%
    10:00 +27°C° 0 mm 2 m/s 733 mmHg 54%
    11:00 +27°C° 0,3 mm 3 m/s 733 mmHg 55%
    12:00 +28°C° 0,3 mm 3 m/s 732 mmHg 55%
    13:00 +28°C° 0,3 mm 4 m/s 732 mmHg 55%
    14:00 +27°C° 0,4 mm 4 m/s 732 mmHg 58%
    15:00 +27°C° 0,4 mm 3 m/s 732 mmHg 60%
    16:00 +26°C° 0,4 mm 3 m/s 732 mmHg 62%
    17:00 +24°C° 0,2 mm 2 m/s 732 mmHg 69%
    18:00 +23°C° 0,2 mm 2 m/s 732 mmHg 75%
    19:00 +21°C° 0,2 mm 1 m/s 733 mmHg 82%
    20:00 +21°C° 0,2 mm 1 m/s 733 mmHg 84%
    21:00 +20°C° 0,2 mm 1 m/s 733 mmHg 85%
    22:00 +19°C° 0,2 mm 1 m/s 733 mmHg 87%
    23:00 +19°C° 0,2 mm 1 m/s 733 mmHg 87%
    Mostrar mais